RH
80 83 87 87 79 75 78 82 85 86 86 90 96 98 98 98 97 94 91 91 89 83 77 74 72 67 63 61 59 61 61 61 68 72 69 65 62 61 59 55 55 57 53 56 65 65 63 64 63 67 73 74 75 71 68 78 93 98 97 95 94 89 86 85 80 75 73 71 75 77 73 73 76 79
82 87 90 84 77 77 80 83 85 86 86 89 95 99 99 98 98 97 96 93 87 83 78 73 71 68 65 62 60 60 57 54 62 71 69 63 60 59 58 53 51 56 56 55 61 65 60 58 62 66 72 76 74 70 67 69 80 94 101 99 96 94 92 88 81 78 74 70 74 79 76 76 77 77
87 92 89 79 76 79 82 85 85 85 86 89 95 99 99 99 99 97 99 98 88 81 79 75 72 72 70 65 61 60 57 53 56 64 64 56 52 52 51 48 46 51 58 54 54 63 60 54 60 64 66 71 72 68 68 66 67 81 96 98 98 99 95 91 85 81 77 71 73 79 77 76 77 75
92 90 82 76 79 82 85 87 87 87 88 90 95 99 98 99 100 99 100 100 93 82 78 78 75 76 75 69 64 62 60 58 56 58 57 48 44 45 43 43 44 47 58 60 55 59 61 56 59 62 60 63 65 62 65 67 60 64 83 93 95 100 99 96 90 85 81 74 70 79 80 75 76 75
85 82 80 81 83 84 88 90 88 88 90 91 95 99 99 99 100 100 99 100 98 89 82 80 77 75 78 74 68 65 64 64 61 57 55 47 42 43 39 40 43 43 55 70 65 57 60 59 58 59 57 55 54 53 57 62 55 51 68 82 86 95 99 98 95 90 86 77 69 76 81 75 73 75
77 79 82 83 84 87 91 92 91 92 92 92 95 99 100 100 99 100 100 99 100 96 89 84 80 77 80 78 72 69 68 68 65 60 57 52 47 45 40 40 46 44 47 62 65 55 54 59 59 57 56 50 47 47 47 52 53 48 53 64 74 87 93 93 96 94 88 82 72 69 76 77 73 75
79 82 82 83 85 90 94 95 95 95 93 91 94 98 99 99 99 100 100 99 100 99 94 89 85 82 82 80 77 74 70 69 69 64 60 57 52 48 44 41 45 49 45 47 53 51 48 51 54 54 53 48 45 45 40 42 48 43 35 40 56 75 83 84 90 96 92 85 76 68 73 77 72 73
80 82 84 84 88 93 96 97 96 94 92 91 93 98 99 99 99 100 100 100 99 100 98 93 87 85 84 82 80 79 75 72 71 67 63 63 59 54 51 46 43 48 50 45 44 46 46 45 45 47 50 52 51 47 41 36 38 36 26 24 37 60 73 71 73 90 98 91 80 76 79 77 69 68
80 84 87 88 92 96 97 96 94 92 92 93 94 97 100 99 99 100 100 100 100 100 100 97 90 88 89 87 83 81 78 75 74 73 69 68 66 62 59 55 49 46 51 50 44 43 45 45 43 41 41 49 54 53 49 40 33 30 23 18 26 43 58 63 60 71 92 97 88 84 85 81 72 68
83 86 90 93 95 96 97 95 95 95 95 95 96 97 100 100 99 100 100 100 100 99 100 100 96 93 93 92 88 84 80 76 77 82 81 77 73 69 67 65 59 53 52 53 48 44 43 46 50 50 44 43 47 49 51 46 34 28 25 24 29 29 38 60 65 57 71 93 95 89 89 87 77 69
83 86 90 94 95 96 98 98 98 99 98 98 98 97 99 100 99 100 100 99 100 100 100 100 100 97 95 94 93 88 83 78 78 83 90 90 85 77 72 70 67 62 59 57 54 50 46 43 47 55 55 47 41 38 39 40 33 27 26 29 32 22 23 60 83 62 52 72 89 91 90 89 85 76
82 85 86 88 93 96 98 99 100 101 100 100 98 97 99 100 100 99 99 100 100 100 100 100 100 100 98 97 97 93 91 91 88 86 89 94 93 85 78 73 68 65 61 58 58 56 56 55 57 64 68 60 49 41 35 32 29 26 25 25 25 18 16 55 96 80 41 43 74 96 95 88 88 86
83 84 83 85 90 93 94 98 101 100 100 100 99 99 100 100 100 100 99 99 100 100 100 100 100 100 100 100 100 98 98 98 94 90 88 90 92 89 85 80 73 67 62 59 58 57 57 63 73 81 81 70 62 60 55 45 33 27 27 24 21 18 11 36 88 95 53 36 59 86 96 94 92 90
83 83 83 84 88 90 93 98 100 100 100 99 97 99 101 100 100 100 99 98 99 100 100 100 100 100 100 100 100 100 100 98 95 94 93 93 95 95 93 91 84 77 70 63 62 61 58 63 78 90 88 75 64 62 62 55 39 29 29 26 23 23 13 21 70 103 86 67 71 75 77 86 94 97
82 83 83 84 87 89 92 97 100 100 99 97 96 98 100 100 100 100 99 98 99 99 99 100 100 100 100 100 100 100 100 100 99 99 97 97 99 98 97 97 94 88 81 72 67 66 62 61 70 82 88 84 69 54 48 47 42 34 31 28 25 26 19 18 54 97 103 93 93 88 75 66 73 91
81 81 81 83 86 89 93 98 100 100 98 95 96 97 98 100 100 99 100 100 99 99 99 99 99 100 100 100 100 100 100 100 100 100 99 99 100 99 98 96 93 90 88 82 76 73 68 63 62 62 67 72 68 56 47 45 43 39 35 31 27 28 25 18 33 73 100 102 97 96 91 76 62 66
82 81 83 86 89 91 95 99 100 99 97 95 94 94 97 100 98 97 100 100 99 100 100 99 99 100 100 100 100 100 100 100 100 100 100 100 100 100 99 95 89 87 89 88 86 84 78 69 63 57 52 55 56 53 50 48 46 43 39 34 29 28 30 25 22 40 71 94 99 97 97 94 84 70
83 83 86 90 93 95 98 101 98 96 97 96 94 94 98 99 96 95 97 95 95 98 100 99 99 100 100 100 100 100 100 100 100 100 100 100 100 100 100 98 94 90 90 91 90 92 89 79 72 65 57 53 50 46 45 45 45 44 40 35 32 29 29 29 27 26 34 54 74 82 82 82 87 91
86 88 91 93 96 98 99 99 96 96 99 96 93 95 98 98 98 99 98 97 98 100 101 100 100 100 100 100 100 100 100 100 100 100 100 100 100 100 99 100 99 97 96 95 91 92 94 89 83 78 69 60 54 49 47 43 41 41 39 36 34 33 31 30 31 30 28 30 37 44 47 47 53 67
90 92 93 96 99 98 97 97 97 98 99 96 95 98 98 97 99 98 93 92 94 94 94 96 98 98 98 98 100 100 100 100 100 100 100 99 100 100 100 100 101 99 99 98 93 90 93 93 90 87 82 73 64 58 55 50 45 41 40 39 37 35 35 34 33 32 32 34 35 31 29 29 28 35
94 94 96 99 100 98 97 99 99 99 99 98 97 98 98 98 100 98 89 83 81 81 81 82 87 93 94 94 96 98 99 100 100 99 100 100 100 100 99 100 100 98 95 94 92 90 91 93 92 90 88 84 76 69 63 57 53 48 43 40 39 37 36 34 33 32 30 32 36 35 33 30 28 28
96 96 97 100 100 97 98 100 100 99 100 99 99 99 99 99 100 99 93 88 83 78 73 73 80 90 94 93 94 97 98 99 100 99 99 100 100 99 99 99 99 99 96 92 92 91 90 90 91 91 92 92 87 81 74 67 61 58 54 49 44 40 38 35 33 33 31 29 30 31 32 33 35 35
98 97 98 100 100 98 99 100 100 100 100 100 100 100 99 99 101 100 98 96 95 89 84 83 88 93 93 92 96 98 98 99 100 100 100 100 99 99 99 99 99 99 95 91 92 94 92 90 90 90 92 96 92 86 84 80 73 66 63 61 57 51 45 40 36 34 33 32 30 29 29 29 33 38
99 98 99 100 100 100 100 100 100 100 100 100 100 100 100 100 101 100 97 96 99 99 95 92 92 91 89 89 92 94 94 95 97 99 100 100 99 100 99 99 98 96 92 89 91 93 92 90 90 88 88 91 90 86 85 85 83 79 73 69 67 65 60 53 46 40 36 34 32 31 31 30 29 30
100 100 100 101 100 100 100 100 100 100 100 100 100 100 101 100 99 99 98 96 97 97 94 89 87 87 87 86 88 89 89 90 92 96 99 100 99 100 100 100 100 97 92 90 91 92 91 91 91 90 88 85 83 82 84 85 85 85 83 78 73 70 69 66 60 52 45 40 38 36 34 35 34 32
100 100 100 100 100 100 100 100 100 100 99 100 101 100 100 101 100 98 97 96 95 95 96 94 92 92 91 89 89 88 87 87 88 91 97 100 100 100 99 100 101 98 94 92 93 92 91 90 90 90 90 87 82 80 83 85 85 84 85 86 82 78 74 72 69 64 57 49 44 41 39 39 39 36
101 100 100 100 100 100 100 100 100 101 100 100 101 100 100 101 101 96 92 93 96 98 99 100 98 99 99 97 95 93 90 88 85 85 90 96 100 101 100 100 100 99 97 96 96 95 92 90 89 88 87 86 86 85 84 83 83 83 84 85 84 83 81 77 74 71 66 60 53 47 47 48 47 45
101 100 100 100 101 100 100 101 101 101 101 100 100 101 102 101 100 96 93 95 99 101 101 100 100 101 101 100 99 98 94 89 85 82 82 87 94 99 100 99 99 99 100 100 99 98 95 92 90 88 85 83 85 87 87 84 81 81 83 85 85 84 83 82 80 76 71 68 64 59 56 56 58 63
103 102 100 100 102 101 101 102 101 100 101 102 101 102 101 100 100 98 95 96 100 101 101 101 102 102 102 101 101 98 93 88 86 82 78 79 86 94 99 99 96 95 98 100 100 100 99 96 92 90 87 84 82 81 81 82 81 79 79 82 84 83 81 80 80 79 76 74 70 66 61 59 62 69
95 100 102 102 103 103 103 103 102 101 101 101 101 102 99 98 100 101 98 96 99 101 102 102 102 102 101 100 97 95 92 90 89 87 84 81 82 87 95 100 97 92 93 96 99 99 100 99 96 94 92 89 84 80 78 77 79 79 78 78 80 81 80 78 77 78 78 76 73 69 65 62 62 63
87 96 101 102 102 101 100 99 98 97 96 95 96 99 98 97 100 103 100 98 98 99 99 98 99 100 99 97 95 95 94 93 92 92 93 91 86 87 94 101 100 93 89 90 94 98 99 100 99 97 96 94 90 84 80 77 77 78 78 78 78 78 77 77 77 77 75 74 74 74 72 67 63 62
91 95 96 96 95 94 93 92 92 93 93 93 94 97 98 97 98 100 100 98 97 97 96 96 97 98 97 96 97 96 95 94 92 94 98 97 94 93 97 101 100 97 93 90 92 95 98 100 101 99 97 96 93 88 85 82 79 77 77 78 78 77 74 73 75 76 76 78 79 78 75 71 65 61
94 94 93 94 95 94 94 94 94 95 95 95 94 97 98 98 98 99 100 100 99 98 97 96 96 96 96 98 98 96 95 94 93 94 99 100 98 98 99 99 98 99 99 96 93 96 98 99 100 100 99 96 93 91 89 87 84 79 76 77 80 80 76 73 74 76 79 82 84 83 80 75 67 61
95 96 96 97 99 99 98 99 98 98 99 98 97 97 98 98 99 100 101 101 101 99 98 99 99 97 97 98 97 97 98 97 94 95 98 99 99 100 100 97 96 98 100 99 97 97 99 100 99 100 100 99 98 96 93 91 88 84 79 77 79 79 77 74 76 79 78 78 81 86 88 82 73 68
97 99 99 99 100 100 100 100 100 100 100 100 99 99 98 98 99 101 102 101 101 100 100 101 100 98 97 98 97 97 99 99 97 96 98 98 99 100 100 98 97 97 99 100 99 98 99 100 100 100 100 100 100 99 97 94 91 87 85 82 80 79 77 75 77 80 82 79 79 84 89 88 83 79
100 100 100 100 100 100 100 100 100 100 100 100 100 100 100 100 100 101 102 101 100 100 101 101 100 99 99 100 100 96 95 97 98 98 98 98 99 100 100 98 97 98 99 99 99 100 100 100 100 99 98 99 100 98 96 95 93 91 88 85 82 81 79 77 77 80 83 84 82 83 86 88 85 81
101 100 100 100 100 100 100 100 100 100 100 100 100 100 100 100 100 100 101 100 100 100 101 100 100 102 103 103 102 96 92 94 99 100 99 99 100 99 99 98 97 99 99 96 96 99 101 100 100 99 96 97 100 98 93 93 94 93 90 87 84 81 79 78 81 83 83 83 82 80 80 80 77 74
100 100 100 100 100 100 100 100 100 100 100 100 100 100 100 100 100 100 100 100 100 100 101 100 101 103 103 103 103 99 93 93 99 100 98 99 102 101 100 100 99 98 98 96 95 97 100 100 100 99 97 96 98 97 96 98 98 94 91 89 87 83 80 80 82 83 82 82 80 77 75 75 72 70
99 100 100 100 100 100 100 100 100 100 100 100 100 100 100 100 100 100 100 100 100 100 100 100 100 102 101 101 102 101 97 98 101 101 97 98 102 102 101 100 99 97 97 96 93 94 98 100 100 100 98 96 93 88 87 91 91 87 87 89 88 86 84 82 82 82 81 79 79 79 78 77 75 71
100 100 100 100 100 100 100 100 100 100 100 100 100 100 100 100 100 100 100 100 100 100 100 100 100 101 101 101 101 102 102 103 103 99 96 98 101 101 100 100 98 97 97 96 93 94 97 98 97 98 98 98 92 83 77 80 84 84 86 88 89 90 88 85 83 84 83 80 80 82 83 83 81 78
100 100 99 100 100 100 100 100 100 100 100 100 100 100 100 100 100 100 100 100 100 100 100 100 100 101 101 101 103 103 103 104 103 97 96 98 97 95 97 100 100 98 98 95 94 96 97 94 91 92 97 100 99 93 88 89 91 90 86 83 82 85 88 88 85 84 82 80 81 84 85 84 83 81
100 100 100 100 100 100 100 100 100 100 100 100 100 100 100 100 100 100 100 100 100 100 100 100 100 101 101 102 104 104 103 103 102 98 97 97 93 91 97 102 101 100 100 98 97 98 98 94 88 88 94 99 100 98 95 93 91 88 84 79 75 74 78 83 85 85 84 81 80 83 86 87 88 89
100 100 100 100 100 100 100 100 100 100 100 100 100 100 100 100 100 100 100 100 100 100 100 100 100 101 102 102 104 104 102 101 102 100 99 96 92 91 95 99 100 101 101 100 100 100 99 94 88 88 95 100 100 99 97 92 88 86 84 81 77 72 70 72 75 80 85 85 82 80 80 81 85 88
100 100 100 100 100 100 100 100 100 100 101 100 100 100 100 100 100 100 100 100 100 100 100 100 100 101 102 102 103 104 102 101 102 103 101 96 91 89 89 91 95 99 101 100 100 101 100 95 91 93 99 101 100 99 99 95 92 90 87 84 82 78 74 72 72 78 87 91 89 86 82 78 77 77
100 101 100 100 101 100 101 101 100 100 100 100 100 100 100 100 100 100 100 100 100 100 100 100 100 101 102 102 103 104 103 102 102 103 102 98 92 88 86 86 90 97 101 101 100 100 100 99 96 96 99 100 99 100 100 98 97 95 92 90 88 84 81 80 79 83 90 90 85 86 89 86 80 77
Wind_Speed
35 33 30 27 26 28 29 28 27 28 29 27 29 29 22 14 8 7 9 7 5 10 14 15 17 20 22 24 26 27 28 30 32 33 34 35 34 33 32 33 33 32 29 30 30 27 26 28 31 33 33 34 36 31 29 29 21 19 34 43 41 42 43 43 43 40 39 37 35 36 37 38 38 39
38 32 28 27 27 29 27 27 28 28 29 29 28 31 30 23 13 7 9 9 5 7 11 14 15 17 20 22 24 26 28 29 31 33 34 35 33 31 31 32 33 33 32 32 32 30 26 25 27 32 34 35 36 33 28 29 27 22 26 36 41 42 42 43 44 42 40 38 36 37 38 38 38 39
37 29 27 28 27 28 27 27 29 28 29 29 28 31 32 27 21 13 9 8 9 9 10 12 13 15 17 20 23 25 27 28 29 31 33 32 30 29 30 31 32 34 35 34 33 33 29 25 26 30 36 37 36 36 33 30 27 27 25 25 32 40 42 43 45 44 41 41 39 38 39 38 38 39
31 26 26 28 27 27 27 27 29 30 30 28 27 30 31 27 25 19 11 7 10 14 15 14 13 12 14 17 22 24 26 26 26 29 32 30 27 28 29 29 30 32 35 35 35 35 33 29 28 28 33 36 33 33 35 32 26 29 32 24 21 29 36 40 44 44 42 42 41 40 39 38 38 39
27 24 25 27 26 26 26 26 29 30 29 27 26 28 30 25 24 21 12 6 8 14 17 18 18 16 14 15 20 24 24 24 25 26 29 29 27 27 26 25 26 28 32 34 35 35 35 32 30 29 29 30 29 27 30 31 28 28 32 28 19 19 25 34 41 42 41 41 41 41 40 40 38 39
25 23 24 25 25 24 24 27 30 30 26 25 26 27 29 26 22 21 13 6 5 9 13 16 18 19 16 13 15 21 23 23 23 25 27 28 27 25 25 25 25 26 29 33 35 35 36 35 33 32 30 28 27 26 27 28 27 28 30 31 28 23 21 28 36 40 42 42 41 41 41 41 40 39
24 23 24 24 25 25 26 30 31 28 24 24 26 25 28 28 20 20 15 9 5 6 9 12 16 18 17 13 11 16 21 21 22 24 26 27 26 24 23 24 24 25 26 29 33 35 36 36 35 34 33 30 29 28 26 26 28 31 32 34 36 34 29 29 32 38 42 43 41 42 42 42 42 41
25 24 24 25 26 26 27 30 29 25 25 26 27 25 26 29 22 15 15 12 9 8 7 9 14 17 15 13 10 12 15 18 19 22 24 24 24 23 21 20 22 23 24 25 29 33 35 36 36 35 33 32 30 29 28 27 29 32 33 34 37 39 36 34 33 36 41 44 43 42 43 43 42 41
26 24 24 25 27 27 25 27 26 26 29 29 27 25 24 26 27 20 13 12 11 9 7 8 13 16 13 11 11 11 11 12 13 16 19 21 20 20 18 17 18 19 21 23 25 29 32 34 36 37 36 34 33 31 30 30 31 32 33 34 37 38 38 39 38 36 38 43 45 43 43 44 42 40
26 24 25 25 26 26 26 27 27 28 30 29 27 26 25 25 27 24 17 12 11 10 10 10 11 14 14 11 11 11 11 11 12 11 12 15 17 17 16 15 15 17 18 20 23 25 29 32 34 35 36 36 36 34 33 32 33 34 35 36 38 38 37 38 40 39 37 39 44 45 44 44 43 40
27 24 24 24 25 26 26 27 29 30 31 30 27 25 24 26 25 23 20 14 12 11 9 9 10 12 14 13 11 13 13 12 13 14 11 10 13 15 16 15 14 14 15 18 21 23 24 28 31 32 34 36 37 38 37 36 36 37 37 38 39 39 39 39 41 42 38 35 41 48 47 45 45 43
26 24 24 25 26 27 27 28 30 31 32 30 27 25 25 26 25 22 20 15 11 11 8 7 9 10 11 12 11 13 14 10 11 15 13 9 11 13 13 14 14 13 13 14 17 21 22 24 27 30 32 34 36 38 39 39 39 39 38 39 39 39 42 43 41 42 40 35 39 49 51 48 47 45
24 24 24 25 27 28 29 30 31 33 32 29 27 28 29 27 25 22 20 16 9 9 6 5 6 7 6 8 8 10 13 12 12 15 14 10 12 13 12 11 12 13 13 14 15 18 21 24 25 27 29 31 34 35 37 38 39 38 37 38 38 38 41 44 42 40 41 39 37 42 46 48 49 47
24 25 25 25 27 29 30 31 33 34 32 29 29 29 29 27 25 23 19 16 11 5 4 2 3 3 3 6 8 7 8 11 13 14 13 11 11 11 9 8 9 12 13 14 14 15 18 23 25 27 28 30 31 34 36 37 38 38 36 36 36 35 38 43 43 39 39 41 40 38 38 41 45 47
25 25 26 26 27 29 31 33 35 34 30 30 30 30 29 26 25 23 19 18 17 10 2 1 0 1 1 4 8 8 8 10 11 11 10 10 9 7 5 3 5 11 14 14 15 14 14 18 23 27 28 28 30 33 36 38 37 37 36 35 35 35 35 39 43 41 37 38 41 43 40 38 39 42
25 25 27 28 27 29 33 34 35 33 31 30 30 29 28 25 24 25 22 20 21 18 11 6 5 5 3 2 3 5 9 11 11 10 10 11 10 7 4 3 4 10 15 14 13 14 14 14 18 22 25 26 28 30 32 35 36 36 36 34 34 35 34 36 40 41 40 38 39 42 44 42 40 38
25 25 26 27 28 30 32 33 32 32 31 30 30 29 26 24 26 27 24 23 23 21 18 14 13 13 10 6 7 5 4 10 11 11 10 11 11 8 7 7 6 9 15 16 12 11 14 15 15 17 20 21 24 27 28 31 33 34 35 34 34 34 34 34 36 39 41 41 40 41 41 42 42 40
25 25 24 27 29 28 29 30 31 31 30 27 28 28 25 25 28 28 27 29 29 25 22 19 18 19 16 10 7 8 5 4 8 10 11 11 12 10 9 8 7 7 14 17 11 7 11 16 15 14 15 16 18 21 23 26 29 30 32 33 33 33 33 33 34 35 38 40 42 42 41 40 41 41
26 25 25 27 28 26 27 30 32 32 28 25 26 26 25 27 27 26 27 30 29 25 23 21 20 20 19 14 10 9 7 6 4 4 8 11 11 10 8 7 6 7 10 13 9 4 8 15 15 13 14 14 14 14 16 19 23 26 28 30 31 32 33 33 33 33 33 35 38 40 40 39 40 40
27 25 27 29 27 25 28 32 33 31 27 25 26 26 26 28 27 26 30 30 26 24 22 20 20 19 17 16 14 10 7 6 5 4 3 7 9 7 5 4 5 7 8 10 8 4 6 13 15 12 13 14 14 14 14 14 17 21 24 26 28 29 31 32 33 33 33 33 33 35 36 36 37 38
26 26 29 32 29 26 29 32 32 31 26 23 25 26 25 27 27 28 34 34 29 26 23 20 20 20 19 18 16 13 11 7 4 5 5 6 9 6 3 2 3 5 7 9 9 6 5 10 13 11 12 14 15 15 15 14 14 15 18 21 23 25 26 28 30 31 32 33 33 33 34 34 35 35
26 27 29 32 32 30 31 31 32 32 27 23 25 25 25 26 26 28 34 36 32 28 23 20 19 20 21 20 19 17 16 12 7 5 5 4 6 4 2 2 3 2 4 8 10 6 3 8 11 9 9 11 13 16 18 17 17 15 15 17 18 20 22 24 25 27 29 31 32 32 32 32 32 33
27 29 29 31 34 34 32 32 32 32 29 25 25 24 23 24 24 26 29 31 30 28 26 24 22 23 22 21 21 20 19 17 14 9 6 2 3 3 3 3 3 2 2 8 12 8 4 7 11 9 6 4 7 14 18 19 20 19 18 17 17 17 18 19 21 23 24 26 28 29 31 31 31 32
29 30 31 32 35 35 33 32 32 33 31 28 26 25 24 23 24 25 26 27 26 25 26 26 25 25 24 22 22 21 21 21 19 16 12 7 2 2 3 4 3 1 0 4 11 12 7 8 12 11 7 2 2 8 15 18 20 21 21 21 20 18 17 17 18 20 22 23 25 26 27 29 31 33
28 30 31 32 35 36 35 33 33 33 33 31 29 28 27 26 26 27 27 27 25 25 26 29 29 28 27 25 24 23 23 22 22 20 18 13 8 4 4 4 4 4 2 2 8 12 9 9 12 12 9 5 3 6 10 15 19 21 22 24 23 22 21 20 19 19 20 21 23 24 25 27 29 31
28 29 30 32 34 35 35 34 34 34 34 33 32 32 30 29 29 29 29 29 29 28 27 27 28 29 30 30 29 27 25 23 22 21 19 17 12 7 6 5 6 7 6 3 6 11 10 9 12 13 10 6 4 5 6 7 12 18 21 22 24 24 23 23 22 22 22 22 23 23 24 25 26 28
28 29 29 30 32 33 33 34 34 34 34 33 33 34 33 30 29 31 35 36 32 26 23 22 22 25 27 29 30 30 28 25 23 21 20 19 15 10 7 6 7 9 9 6 5 9 12 10 11 13 13 9 5 4 4 4 7 14 17 19 21 22 23 24 24 24 24 25 24 24 23 24 25 26
28 28 28 29 30 31 31 31 32 33 33 34 34 35 34 33 32 34 36 34 28 23 22 21 20 21 24 26 27 28 28 25 23 21 19 17 15 12 10 8 7 7 10 9 8 9 12 13 12 13 15 13 8 4 3 3 7 13 16 15 16 19 21 22 23 24 25 25 26 26 26 26 26 26
26 25 27 28 29 30 30 30 32 33 32 33 33 34 35 35 34 33 32 31 27 23 22 21 19 21 25 27 26 25 25 23 22 21 19 16 15 14 12 11 8 7 6 9 11 11 11 13 15 13 13 14 12 10 7 5 6 12 16 15 14 16 19 19 20 23 24 25 26 28 29 29 29 28
29 27 28 28 28 27 26 27 29 30 30 32 33 33 35 35 32 30 30 30 28 24 22 22 22 24 27 27 26 26 25 24 23 22 21 19 18 17 17 14 12 9 6 6 11 14 14 13 13 13 13 14 14 14 12 8 7 10 15 16 13 11 15 18 18 20 23 25 27 28 28 28 28 29
32 29 27 26 26 26 26 28 30 32 33 35 35 34 34 34 32 29 27 27 27 25 24 24 25 26 27 28 29 29 27 26 25 23 21 19 19 20 19 15 12 11 9 7 7 12 16 15 14 13 13 13 14 16 15 12 10 11 14 17 14 10 12 18 19 18 21 24 25 26 27 27 28 29
30 29 30 32 34 35 36 36 37 37 37 36 36 35 35 35 34 32 29 29 30 29 27 27 28 29 30 31 33 33 30 29 27 24 20 18 19 20 17 11 9 10 11 10 8 8 13 16 15 14 14 14 14 15 15 13 13 14 15 18 17 12 11 17 21 19 19 20 22 24 26 28 29 30
31 33 35 38 39 39 38 37 37 37 37 36 36 36 35 35 35 34 33 32 31 30 30 29 29 31 31 31 34 37 35 32 29 25 20 19 19 18 15 11 9 9 10 11 11 8 10 15 16 15 15 14 13 13 13 12 12 14 15 17 19 14 10 15 21 20 19 20 21 22 23 26 28 29
33 34 34 34 34 34 33 32 32 33 33 34 34 35 34 34 35 34 32 32 31 30 30 30 29 30 30 29 32 35 35 33 30 26 21 19 18 16 13 12 12 12 11 11 12 10 9 13 16 15 15 15 14 13 13 12 11 13 14 15 17 17 13 13 18 20 20 20 20 19 20 22 24 25
33 32 30 29 30 30 29 29 29 30 30 31 31 32 33 33 34 33 32 32 32 30 29 30 30 30 30 30 32 34 32 31 29 25 22 21 18 15 13 11 12 14 13 10 11 11 9 10 13 12 9 10 10 10 13 15 13 12 12 13 15 16 15 14 17 20 20 20 20 19 16 16 19 20
30 29 28 27 28 29 28 28 28 29 29 29 29 30 30 31 33 32 31 31 31 30 29 29 29 30 30 30 32 33 33 31 27 23 22 21 18 16 14 12 12 14 14 13 11 10 11 12 12 10 5 3 4 5 8 14 16 14 12 13 13 14 15 15 16 19 21 21 21 20 16 14 17 19
29 28 27 26 27 28 27 28 28 28 28 28 28 28 28 29 31 31 30 30 31 30 29 29 28 29 29 28 28 33 36 32 24 19 20 20 18 15 14 13 14 14 15 17 18 11 9 13 12 9 4 3 4 4 3 7 15 17 16 14 13 14 15 16 17 20 22 22 22 22 19 17 17 18
27 28 27 26 27 28 27 28 28 28 29 29 29 29 28 29 31 31 30 31 32 31 30 30 29 28 28 27 27 31 35 32 23 19 20 21 18 16 15 14 15 16 16 17 19 16 8 11 13 11 6 3 2 3 2 3 9 16 19 18 16 15 16 18 19 19 21 22 22 22 21 18 16 14
27 27 26 26 27 27 27 28 28 28 29 29 29 29 30 30 31 31 31 31 32 31 30 30 30 28 29 29 28 28 29 27 22 20 21 22 19 18 17 16 15 16 16 15 17 19 12 5 7 8 8 6 6 7 7 6 9 15 19 21 21 19 19 20 20 19 19 22 22 20 18 17 15 13
27 26 26 26 27 27 27 27 28 28 28 29 29 28 29 30 30 30 29 30 32 31 30 30 30 30 30 31 30 28 25 22 19 20 22 21 19 19 19 18 15 15 14 13 14 16 15 13 12 12 10 9 11 14 13 11 10 11 14 19 22 22 22 21 20 18 19 20 20 18 16 15 14 13
27 26 26 26 27 28 28 28 28 28 28 29 29 28 28 29 28 27 27 28 30 31 30 30 31 31 30 31 30 29 25 22 21 21 22 20 19 21 21 18 16 15 13 11 12 14 17 20 20 18 16 13 9 9 8 5 4 7 11 16 18 20 23 24 23 22 21 20 19 18 16 15 15 14
27 26 26 26 27 28 28 28 28 29 29 29 29 29 29 29 28 27 27 29 30 30 31 31 31 31 31 31 30 29 27 24 23 23 23 21 20 22 20 18 17 17 14 12 14 18 22 24 21 16 15 12 6 6 5 3 4 7 10 14 15 17 20 23 25 26 25 23 22 19 15 11 8 8
27 26 26 26 26 27 27 28 28 28 29 29 29 29 29 29 29 30 30 30 31 32 32 32 32 32 32 31 30 28 27 26 26 26 26 23 21 21 20 18 17 18 16 15 18 20 21 22 21 18 15 11 6 5 4 5 6 8 11 14 15 16 18 21 24 27 28 28 27 26 22 17 11 8
26 26 26 26 26 26 27 27 28 28 28 29 29 29 29 29 29 30 29 30 31 31 31 31 32 32 32 32 31 29 27 26 26 27 26 25 23 22 21 21 20 18 16 17 19 19 20 21 21 17 13 11 8 6 6 6 7 9 12 14 15 17 20 21 23 26 28 30 30 28 27 27 24 20
26 25 25 25 26 26 26 27 27 27 28 28 29 29 29 29 29 29 29 30 30 31 31 32 31 32 32 31 30 30 28 28 28 28 26 25 26 24 23 24 23 20 18 18 18 19 20 21 20 16 13 12 11 9 8 8 8 9 11 12 14 16 18 19 21 24 26 30 32 31 28 27 27 25
Wind_Direction
309 305 300 298 304 308 304 300 299 297 294 292 291 290 281 266 270 286 277 274 266 245 240 244 254 254 255 259 256 248 243 241 235 229 228 229 230 232 228 221 220 222 223 223 223 220 215 216 219 217 218 224 226 229 235 234 235 223 206 202 198 193 192 191 190 192 194 194 198 198 194 193 194 196
309 301 297 302 306 306 304 302 301 298 296 293 290 293 287 267 253 267 275 271 267 250 242 240 249 256 256 259 258 249 246 244 237 230 230 230 230 232 231 225 221 220 220 218 219 220 217 217 220 219 218 222 224 227 234 238 240 236 211 201 202 198 194 194 192 190 192 193 195 196 194 195 196 196
304 297 299 308 309 307 305 305 304 301 298 295 294 298 292 270 252 256 267 269 259 246 245 248 253 263 264 261 257 250 247 245 238 233 231 231 232 232 231 229 224 219 217 215 216 216 216 216 219 221 221 223 226 229 234 240 241 239 227 207 200 197 196 196 193 189 191 192 193 195 194 195 197 197
301 299 307 310 308 308 308 308 309 305 300 299 299 303 299 274 253 253 257 268 265 249 246 252 256 269 280 267 252 245 245 242 237 233 231 230 231 231 230 228 225 220 215 213 213 212 211 213 215 219 219 219 222 225 229 235 240 240 237 225 203 196 197 197 193 190 190 191 192 194 194 196 197 197
310 309 312 310 309 313 312 312 312 306 301 302 302 307 309 286 254 250 254 255 269 261 251 250 253 262 279 274 252 240 236 234 231 230 229 229 229 229 228 225 221 218 213 211 211 209 208 211 212 213 213 211 214 217 220 226 235 241 238 230 218 205 200 198 194 192 192 191 193 194 193 195 197 197
319 315 314 314 317 318 315 313 311 304 302 309 308 310 319 307 265 247 255 252 253 266 255 247 250 256 264 270 255 239 231 228 225 225 226 226 228 228 224 222 220 217 212 210 211 210 209 210 212 211 210 205 204 208 212 216 224 234 236 229 224 220 213 206 200 196 195 194 194 194 193 195 196 196
322 320 320 322 323 320 316 312 308 306 311 319 317 314 325 323 286 247 251 261 251 260 260 247 243 247 251 254 253 241 233 230 227 226 225 224 224 226 224 223 223 221 216 212 212 213 212 211 212 212 211 208 204 205 208 213 218 225 229 227 223 222 221 217 208 200 197 195 194 194 194 196 197 197
324 324 324 325 323 318 316 313 312 321 328 326 324 321 326 331 318 276 252 252 252 253 258 249 241 241 242 240 242 239 229 227 228 226 224 220 219 221 223 225 225 224 222 217 214 215 214 213 214 213 211 210 211 210 210 213 217 222 226 224 220 221 223 223 217 206 199 196 195 195 195 197 198 198
325 324 324 323 323 320 321 323 325 331 331 326 327 327 324 329 332 321 284 252 251 256 252 248 243 239 236 228 226 227 213 207 212 216 216 215 213 215 217 222 225 223 221 220 217 216 215 214 215 214 211 209 211 213 214 215 217 221 224 222 218 218 222 224 221 215 206 199 196 196 197 198 198 198
327 324 325 324 327 329 330 332 331 330 330 328 329 328 325 326 332 334 318 277 258 261 256 247 239 234 233 221 210 216 213 197 188 187 194 200 201 202 202 206 215 215 214 217 217 216 216 215 214 214 213 210 208 210 213 215 217 219 221 219 216 213 216 220 219 218 216 207 200 197 197 198 199 198
332 327 331 330 330 332 332 332 331 332 331 328 327 328 326 326 330 335 328 302 266 260 258 242 231 228 229 223 210 207 209 204 194 182 171 174 179 182 185 188 193 197 202 208 213 215 216 215 214 213 212 210 207 206 208 211 215 217 217 217 215 211 210 215 216 213 214 215 209 203 200 199 198 198
339 334 336 335 331 331 333 333 333 332 330 326 328 332 330 329 332 331 328 315 272 250 253 241 226 221 218 216 208 197 190 191 199 192 179 166 167 169 173 178 176 175 180 188 199 208 211 211 213 212 211 211 209 206 206 208 212 214 214 215 214 211 209 212 213 209 210 217 216 208 203 200 200 199
344 341 339 336 333 333 335 334 333 331 329 329 334 336 333 332 332 329 328 326 292 243 240 244 220 211 209 203 198 190 182 180 188 191 184 174 172 172 170 177 179 174 171 171 180 196 203 205 207 209 210 211 210 209 207 207 210 211 212 212 212 210 209 210 211 208 207 212 215 211 206 203 201 200
344 342 340 336 332 333 333 332 331 331 331 335 340 338 334 333 333 331 332 335 328 282 229 241 210 199 201 191 191 191 181 180 181 181 178 171 170 170 166 173 187 188 179 169 169 183 196 199 199 202 206 208 208 208 208 207 208 209 209 210 209 208 207 207 208 207 205 204 206 208 210 210 206 202
344 341 340 337 332 332 331 329 332 335 335 339 342 340 337 339 340 343 350 354 352 352 343 268 206 176 177 181 190 186 173 180 189 185 175 164 158 159 159 161 186 194 191 177 167 173 187 196 198 199 202 204 204 206 208 208 208 207 208 208 207 207 205 204 205 204 202 202 201 202 206 213 215 208
347 344 340 335 332 331 330 329 333 337 339 341 343 343 341 342 346 354 4 4 358 1 9 15 22 16 14 80 137 168 177 183 188 188 186 182 176 169 171 178 182 192 194 185 172 175 182 191 199 201 202 202 202 203 206 208 209 208 207 207 206 206 205 204 204 203 201 200 201 200 201 206 211 213
351 347 339 333 329 329 331 333 336 340 342 344 344 344 342 343 350 356 2 2 1 6 10 11 11 6 3 21 43 50 163 183 180 178 184 188 187 181 178 185 187 189 191 185 170 173 186 190 196 202 203 204 204 203 203 205 208 209 208 208 207 207 206 204 203 203 203 202 200 198 198 200 202 206
353 348 340 333 328 328 332 338 342 345 347 347 344 342 342 345 352 357 358 359 1 4 6 6 4 2 2 6 22 35 57 139 171 182 187 186 186 185 178 174 165 167 185 187 173 164 188 192 193 197 197 198 202 204 204 204 206 208 209 209 208 207 208 206 204 204 205 206 206 205 205 206 206 204
353 347 343 336 330 333 341 346 349 351 352 350 345 344 347 347 350 354 355 355 355 357 359 360 357 359 8 18 25 32 47 67 93 167 198 198 191 181 166 159 156 157 178 188 182 163 183 191 195 197 193 190 189 193 199 203 204 205 207 208 208 208 208 208 207 206 205 206 207 209 210 210 210 209
352 350 347 340 336 344 353 353 354 356 358 355 350 349 351 350 349 351 354 356 358 0 1 360 358 1 14 26 30 31 38 53 65 78 151 184 179 161 141 137 151 162 177 189 186 159 164 186 196 198 195 194 190 186 187 192 198 203 204 205 207 207 207 208 208 208 208 208 207 207 208 208 208 209
351 350 349 345 346 354 358 357 358 2 4 1 356 354 353 354 352 351 354 358 2 6 8 7 11 17 23 27 28 29 32 38 62 78 97 150 161 149 127 109 130 161 184 193 189 172 161 184 191 190 191 198 200 196 192 188 188 196 201 204 205 206 206 207 207 208 209 211 212 209 208 208 207 207
350 350 350 350 355 360 1 1 3 7 10 8 3 360 357 358 357 353 355 359 359 2 8 12 18 25 27 27 29 29 28 29 38 59 72 121 146 135 116 113 112 142 192 200 194 181 166 185 183 168 169 191 204 205 202 198 194 193 195 200 203 205 206 206 205 206 208 210 213 214 213 211 209 208
351 351 351 353 359 4 5 5 7 11 15 14 9 5 3 3 359 353 356 1 360 360 4 8 14 19 22 28 35 33 31 31 31 30 32 65 135 136 137 136 117 96 209 208 200 188 169 183 183 165 145 165 206 207 205 204 202 202 200 200 202 203 204 206 206 206 207 208 210 212 214 214 212 210
350 351 351 353 360 6 8 9 11 14 17 17 13 11 11 7 0 357 2 7 5 3 6 9 12 16 20 27 32 30 29 30 29 26 21 11 336 218 186 169 159 151 82 189 197 198 190 186 191 189 184 167 161 192 202 204 205 206 207 206 206 204 202 203 206 207 208 209 209 210 211 213 213 213
349 349 351 352 359 7 10 12 14 15 18 19 17 16 14 10 8 8 9 9 10 12 15 17 17 17 17 19 21 20 20 20 21 22 22 13 354 311 252 216 204 224 250 182 197 205 200 191 196 198 200 199 154 156 183 199 203 207 210 211 212 211 207 205 204 205 206 208 210 212 213 214 215 215
351 350 352 354 359 7 11 13 15 16 18 20 18 17 16 13 13 16 16 17 19 17 16 16 16 15 13 11 11 10 8 10 12 14 15 12 4 343 299 258 235 238 253 250 213 212 210 203 200 196 192 193 178 154 155 180 199 204 207 211 214 215 215 213 209 207 206 206 208 210 212 215 217 219
352 351 354 356 1 8 12 13 15 17 18 19 19 18 17 15 15 18 21 22 19 13 11 13 11 8 6 4 3 1 359 0 3 4 4 5 5 358 337 305 268 250 251 257 239 225 224 222 213 205 200 192 173 159 155 153 184 196 200 206 211 214 216 216 215 212 210 208 208 208 210 214 217 219
356 354 357 359 3 9 12 13 15 17 18 18 19 18 18 18 18 19 18 16 11 7 9 10 6 2 1 359 357 356 355 356 357 355 354 359 4 1 347 330 306 270 251 249 247 237 234 234 230 222 213 202 187 178 175 153 170 186 190 195 203 209 213 214 216 216 213 211 210 209 209 210 212 215
360 359 1 4 8 11 12 13 15 17 16 17 18 19 19 20 21 20 17 14 12 11 9 4 358 354 355 356 355 356 359 2 1 355 350 351 359 0 352 337 322 303 267 245 239 238 240 241 237 231 224 215 208 200 189 169 168 184 187 187 194 206 210 211 214 215 214 212 212 211 211 211 210 210
8 9 8 9 11 11 13 15 16 15 15 16 19 19 20 20 20 19 19 18 15 12 6 1 357 353 353 356 0 5 9 9 6 1 355 350 350 354 352 340 323 316 310 266 239 233 236 242 239 231 224 220 219 216 207 190 176 186 192 189 185 194 206 210 211 213 213 213 212 213 214 215 214 214
12 13 10 11 13 14 16 18 19 18 17 17 18 18 18 19 18 17 20 21 20 17 10 4 2 360 360 3 7 9 11 10 7 4 360 352 347 348 346 334 317 314 318 312 268 237 234 237 238 232 224 217 219 223 222 211 196 190 193 193 189 189 201 204 205 209 212 213 212 212 212 214 216 218
11 14 13 15 17 17 18 17 16 16 16 15 16 15 15 16 16 16 18 19 20 18 13 9 8 7 5 7 9 10 10 9 8 6 3 358 352 349 343 327 310 310 310 310 303 259 236 234 235 231 225 220 220 220 219 217 209 200 195 195 196 198 203 201 201 204 206 206 207 209 211 212 214 216
14 17 17 17 16 15 14 13 11 11 10 9 11 12 13 13 14 14 16 15 13 12 11 11 11 8 6 6 8 10 9 7 7 8 6 0 355 350 342 331 321 311 297 294 297 281 245 233 232 229 227 226 226 219 212 211 212 208 203 198 198 200 203 203 202 200 197 196 198 202 208 212 214 217
20 18 17 16 14 12 11 10 8 6 5 5 5 6 8 10 10 11 13 12 8 7 9 9 8 7 7 6 7 8 5 2 3 8 6 360 357 351 341 335 334 324 301 281 279 276 253 231 224 223 223 223 222 220 214 211 210 210 209 206 203 200 198 200 202 200 198 196 194 194 201 211 214 216
22 18 15 13 11 10 10 8 6 4 3 3 2 1 4 7 8 8 9 8 6 6 6 7 7 7 7 6 6 7 2 358 0 5 3 359 358 351 341 337 337 333 325 300 273 260 242 219 206 201 202 207 213 222 221 215 212 208 202 203 206 204 198 196 199 199 198 199 197 192 195 206 212 215
21 17 14 11 8 7 7 5 4 3 3 2 0 360 360 1 3 4 4 4 5 7 7 6 6 7 5 3 3 4 3 2 1 0 358 356 353 347 344 342 335 332 337 337 315 272 225 198 188 183 174 172 191 215 223 217 213 209 198 195 200 203 200 197 196 197 197 198 199 198 196 203 212 214
17 13 12 9 6 5 4 2 1 2 1 1 0 1 360 358 358 0 2 4 7 8 7 6 5 3 360 358 358 1 5 5 1 354 352 352 348 346 346 341 336 336 338 340 337 314 231 195 184 181 183 182 189 198 207 209 211 212 209 200 194 197 200 195 190 195 199 199 201 203 203 207 214 217
13 9 8 6 4 3 2 1 0 360 0 360 359 359 359 358 358 360 3 5 6 6 5 6 5 2 1 359 357 358 2 3 358 353 353 351 347 347 346 339 339 342 336 333 338 334 285 212 195 192 192 178 189 200 147 149 203 214 215 209 201 197 197 193 190 193 199 202 205 208 209 212 218 223
11 8 5 3 2 1 360 360 360 359 359 359 359 359 358 357 358 1 2 3 3 3 4 5 3 2 3 2 359 357 357 356 352 351 352 349 345 345 346 342 340 341 336 331 338 341 331 268 215 215 216 210 214 215 202 199 220 224 220 218 215 209 202 199 198 197 199 204 208 210 212 215 223 230
7 6 4 1 0 360 359 359 359 358 358 358 359 359 358 357 358 360 0 360 360 0 1 2 2 2 2 2 1 358 354 350 350 350 347 345 346 347 346 343 340 339 337 333 334 337 338 335 332 326 311 282 253 236 226 224 231 230 224 223 224 222 218 215 209 204 205 208 208 209 210 214 218 224
2 2 2 0 359 359 358 358 357 357 358 358 358 358 359 359 359 359 357 358 359 359 360 0 1 1 0 360 0 359 354 350 351 351 346 344 347 349 347 346 344 343 342 337 329 325 325 327 331 334 335 325 285 238 222 218 220 221 223 227 230 229 229 229 227 223 221 216 208 204 207 212 215 219
360 358 359 359 358 358 358 357 357 357 357 357 358 358 358 358 359 358 358 359 360 360 359 359 359 359 358 358 359 359 356 351 350 350 347 346 347 347 347 347 346 342 336 329 321 316 319 327 334 338 340 333 292 218 202 205 205 207 218 228 234 233 233 234 235 235 234 230 220 211 204 196 193 205
359 358 357 357 358 358 358 357 357 357 356 356 357 357 357 357 358 359 359 359 359 359 358 357 357 357 356 356 357 357 356 354 351 349 348 347 347 347 346 345 341 336 329 323 320 318 322 331 338 341 339 327 288 233 222 232 223 213 214 223 229 233 235 236 235 235 237 237 236 234 228 218 209 212
358 357 357 357 357 358 358 357 357 357 356 356 356 357 357 357 356 357 358 357 356 356 355 355 355 355 355 355 355 355 355 353 350 349 348 347 348 348 346 344 341 336 332 330 329 328 330 335 340 341 335 319 298 268 244 239 237 230 226 224 224 226 229 231 231 233 234 235 237 239 239 236 236 241
358 357 358 359 358 358 358 358 358 357 357 357 357 356 357 356 355 356 357 356 355 354 353 353 353 353 353 353 353 352 351 350 350 350 349 348 348 348 347 347 344 339 338 339 338 335 333 336 342 344 333 317 311 299 272 255 248 240 235 231 226 222 222 224 226 228 231 233 234 233 233 235 238 241